Helicity
150 207 244 274 268 203 252 333 365 361 369 475 705 577 538 399 324 235 170 74 113 119 133 147 161 155 175 160 163 166 178 213 254 262 256 243 252 230 206 244 264 302 254
142 208 386 375 324 311 411 441 413 378 429 586 651 527 414 280 207 124 142 184 140 128 167 158 160 148 157 168 206 211 221 214 248 250 290 321 302 249 257 273 311 300 284
132 402 571 411 413 382 353 361 426 452 490 482 432 473 503 368 175 137 134 75 119 141 156 165 159 144 148 150 161 186 208 213 259 303 299 310 301 289 358 322 239 226 177
306 493 593 445 473 485 470 439 428 402 434 395 400 411 238 310 148 83 85 121 170 195 181 164 146 132 134 141 153 175 193 243 285 313 343 356 343 302 272 238 147 150 162
554 547 528 554 535 471 435 417 425 424 378 427 314 248 205 139 115 85 183 276 294 235 171 147 127 121 122 141 179 207 226 243 277 308 313 307 302 232 195 170 138 160 177
579 582 488 437 454 395 402 514 458 402 350 308 194 159 119 108 254 252 266 259 211 159 146 127 128 122 117 116 130 147 201 274 305 368 356 383 324 256 207 170 134 133 124
479 432 401 394 399 446 534 453 399 315 249 231 103 120 169 221 224 230 218 211 165 147 143 135 133 129 127 136 149 188 209 231 296 313 327 326 300 241 199 198 171 153 165
338 344 328 340 379 411 427 375 292 240 170 119 137 227 228 212 234 216 191 155 142 134 135 143 159 161 162 194 180 174 182 198 252 303 289 233 214 186 191 228 189 153 149
263 257 247 287 351 330 298 265 233 197 193 225 245 223 239 320 329 283 193 203 216 205 160 154 170 172 162 158 171 165 164 174 169 161 172 157 120 145 221 237 215 155 136
205 195 211 237 283 281 264 214 186 210 226 239 307 377 330 269 276 242 203 195 195 180 184 174 149 146 146 158 180 187 180 167 188 188 191 175 109 73 148 229 177 144 161
223 259 265 243 226 226 229 254 262 279 344 355 327 295 266 263 268 266 237 215 210 188 169 158 156 135 134 131 116 151 165 164 167 186 172 138 82 107 123 186 171 172 181
254 242 276 293 260 274 311 290 274 268 303 285 252 238 229 237 260 263 258 216 194 176 169 153 145 124 118 114 122 114 126 171 191 178 160 134 104 95 145 149 142 185 212
325 331 368 332 297 273 275 284 295 303 288 254 216 200 215 210 200 319 275 223 199 179 170 152 129 124 139 171 140 136 152 198 192 187 141 123 96 86 115 124 141 173 156
352 392 353 342 343 328 338 335 339 338 295 247 192 193 219 228 276 242 206 180 188 175 167 155 151 146 139 157 150 153 162 144 175 145 114 104 105 83 70 98 136 147 170
459 426 439 408 403 423 413 391 296 277 242 242 260 242 226 228 247 223 188 172 170 158 152 151 166 184 152 149 150 169 144 130 167 83 117 104 87 91 95 107 121 145 170
550 648 493 422 402 312 283 299 258 158 150 158 176 194 210 220 211 197 180 155 146 149 165 178 192 194 171 155 157 152 143 124 75 54 97 98 107 103 97 113 159 140 166
582 559 531 499 381 369 351 298 220 146 101 79 85 114 144 162 146 162 168 152 140 149 172 193 213 207 188 164 164 159 141 106 91 30 -38 -20 64 86 103 111 143 133 162
682 685 489 364 366 341 248 214 219 227 176 122 74 74 56 117 159 152 146 139 186 236 228 234 232 214 191 177 158 147 121 98 78 66 45 65 117 121 74 113 133 128 132
478 372 275 203 180 209 225 205 165 170 181 178 186 156 186 273 230 204 199 184 204 198 209 220 205 191 172 153 137 120 102 85 62 57 59 74 71 93 192 75 77 128 141
228 250 253 235 205 178 174 182 172 183 193 191 205 245 278 245 188 159 203 236 232 223 217 198 180 168 155 139 118 99 89 76 60 65 53 62 39 82 127 137 117 124 142
219 232 209 181 186 186 173 176 199 195 203 221 225 233 227 204 176 176 209 230 229 230 195 173 168 149 132 116 100 94 78 63 57 59 41 27 13 56 96 99 106 53 118
183 172 167 173 176 194 198 176 175 203 211 241 257 263 266 222 210 214 212 209 200 179 165 160 155 130 116 107 88 78 66 55 56 44 23 13 45 42 77 68 66 204 69
151 159 167 172 172 183 185 199 224 224 234 241 231 225 221 220 221 221 215 179 161 157 136 117 124 113 93 79 75 71 60 48 38 32 16 16 42 81 61 86 45 85 194
146 158 169 174 182 172 163 209 202 181 212 227 239 228 225 222 209 196 181 175 155 134 114 106 110 97 82 79 69 57 49 54 55 41 34 21 12 90 93 71 91 67 97
160 162 174 182 190 187 186 196 226 238 242 233 220 217 202 181 173 168 151 139 127 108 104 99 79 81 64 48 41 51 56 43 32 30 37 26 37 71 117 90 109 90 88
164 176 171 167 182 205 218 219 217 213 208 199 187 166 153 151 141 131 122 108 108 98 74 76 66 50 48 63 62 42 34 40 58 67 63 50 43 54 89 111 98 64 17
Wind_Speed
27 24 21 16 16 17 16 16 17 22 24 25 24 10 20 20 20 25 33 30 33 43 45 54 58 55 55 55 53 54 56 59 72 74 66 65 66 67 67 61 54 57 56
26 24 19 17 17 17 17 16 14 15 13 14 10 17 20 20 21 23 26 35 41 42 49 54 56 53 55 55 55 56 56 58 67 78 76 73 70 66 64 64 63 62 63
23 19 17 20 16 17 15 15 15 9 11 12 13 13 15 20 24 28 38 37 40 46 52 55 56 57 59 59 58 60 61 62 67 74 82 76 75 66 71 71 71 69 60
14 17 22 15 14 16 13 13 12 11 12 13 14 16 13 21 25 27 31 36 43 48 49 51 54 57 59 60 61 63 65 70 71 76 78 80 77 76 75 76 77 66 58
9 15 18 16 15 11 9 7 10 15 14 17 19 18 23 25 26 30 37 44 50 52 54 55 55 55 59 63 66 68 70 73 74 76 79 80 77 77 75 72 69 63 50
17 16 17 17 13 13 16 15 15 11 13 19 18 22 23 25 31 36 39 45 49 53 56 56 58 63 67 67 67 67 66 74 77 77 79 79 76 72 68 68 61 53 57
18 17 16 16 16 16 11 10 9 12 16 19 21 23 28 37 35 37 40 45 48 50 56 61 64 65 68 72 74 75 75 71 71 74 76 75 73 67 62 63 54 51 51
21 20 16 16 14 11 10 11 12 13 17 21 26 33 37 40 35 39 43 46 50 54 58 64 70 73 73 78 83 87 86 82 78 73 70 69 64 57 51 51 48 43 44
12 13 13 10 7 8 11 12 15 19 25 32 34 34 37 37 39 44 48 53 58 63 66 69 71 73 74 80 86 89 88 84 76 78 75 66 56 51 40 43 43 44 49
11 9 6 6 9 11 14 16 21 26 28 29 33 37 39 39 43 49 54 59 67 69 67 70 73 74 77 78 82 84 89 86 83 79 71 63 58 45 35 35 36 37 40
8 9 10 8 10 15 19 23 27 29 31 34 38 42 46 46 49 52 57 59 67 72 73 75 75 77 82 83 84 83 83 83 79 75 70 61 53 43 33 30 26 25 30
9 7 10 14 18 20 23 29 30 32 36 39 45 48 45 46 47 53 57 61 66 72 76 77 79 83 87 87 84 80 80 76 70 68 64 54 44 41 33 30 27 25 25
12 15 18 20 23 25 27 29 33 36 40 42 47 49 49 49 47 55 62 68 70 75 75 79 84 86 85 83 80 82 80 71 66 64 61 48 42 38 30 28 26 23 26
16 19 21 24 28 32 33 37 37 42 45 48 50 53 54 54 59 65 70 72 73 76 79 81 81 81 78 83 84 82 78 79 61 59 52 44 38 34 30 27 25 26 29
20 23 27 29 30 34 37 41 38 42 44 48 51 56 58 60 63 67 72 74 77 79 83 81 81 79 85 85 84 79 76 74 74 62 46 42 37 34 32 29 27 29 28
26 31 30 31 35 37 38 40 41 38 41 45 47 51 55 56 63 70 74 76 79 81 80 81 81 82 83 82 81 80 77 74 70 71 71 43 36 37 38 38 34 30 26
33 36 39 42 42 43 45 47 49 47 45 46 48 51 53 58 65 73 77 78 79 77 76 78 80 80 80 78 79 80 79 74 72 66 65 58 58 37 36 38 37 30 28
34 37 40 43 45 48 51 53 55 57 60 60 52 54 56 60 68 77 77 76 77 75 76 78 81 79 79 78 78 77 76 75 71 68 64 65 66 70 53 42 35 34 30
36 40 42 42 45 49 52 56 58 59 61 63 65 59 59 66 74 80 80 73 77 78 76 77 75 77 76 74 74 73 72 70 69 67 65 66 67 66 67 51 43 29 25
44 46 46 48 50 54 57 59 61 63 65 67 70 71 70 77 84 85 76 75 76 75 74 77 74 73 73 72 71 69 67 66 66 65 65 66 64 63 63 62 61 31 25
45 47 49 52 56 58 61 63 65 68 71 73 73 71 70 75 81 78 76 76 76 73 76 75 73 71 70 69 68 67 65 64 63 64 66 65 65 66 65 63 61 48 32
50 52 55 57 60 63 64 68 69 72 74 76 76 76 78 78 78 78 77 76 73 72 70 69 71 69 67 66 65 65 64 63 63 65 68 68 66 65 63 62 60 57 40
54 58 60 62 65 67 71 72 74 76 77 78 79 79 79 79 80 80 78 74 72 69 67 67 67 65 62 63 61 59 61 62 66 69 73 72 68 65 64 62 59 57 54
59 63 66 69 71 73 74 75 78 77 77 78 80 82 81 80 80 78 76 73 72 69 67 66 62 64 65 60 58 60 64 65 65 66 66 68 71 69 65 64 62 62 58
66 69 71 74 76 77 78 79 79 80 82 82 81 79 79 78 76 74 73 72 69 68 65 63 65 60 60 66 67 67 65 62 71 74 70 69 68 69 68 66 63 61 59
71 73 76 76 77 79 81 83 82 81 80 78 77 77 75 74 73 72 70 69 66 64 66 64 63 65 67 65 63 66 73 77 78 76 71 67 67 66 64 64 63 60 59
Wind_Direction
217 218 219 228 243 252 270 289 302 317 326 327 320 298 313 296 311 310 313 314 314 315 315 315 319 322 321 322 324 324 323 322 319 322 324 325 323 323 321 320 320 319 316
225 223 237 256 265 262 278 291 297 307 323 334 352 306 318 311 314 312 311 312 316 317 318 315 318 322 322 323 322 320 319 319 318 318 322 323 323 324 325 325 322 320 317
240 236 246 274 271 275 278 298 306 317 331 339 331 320 317 319 323 315 310 313 316 316 320 321 323 323 323 324 323 322 321 321 320 320 320 322 323 326 325 323 321 318 317
266 260 268 275 277 283 297 308 313 320 329 337 339 329 317 321 318 314 315 317 321 323 325 325 325 324 323 323 323 322 323 323 323 322 322 323 324 324 322 320 319 319 318
271 276 290 295 303 299 297 306 311 314 324 334 330 327 323 322 320 318 322 326 327 326 327 327 326 326 325 323 322 321 319 318 318 317 317 319 320 323 323 323 320 319 315
320 309 307 307 309 314 310 311 319 324 326 327 327 322 324 321 325 327 326 325 325 325 326 326 326 326 325 324 324 323 321 319 317 316 316 318 319 320 323 325 322 322 320
323 322 319 315 309 315 314 317 317 313 320 325 325 323 323 326 327 329 330 328 327 327 326 326 326 326 326 325 325 326 326 323 319 316 313 314 314 316 319 321 319 317 320
315 314 312 312 308 313 322 317 316 320 321 323 323 326 326 327 328 330 331 329 328 327 327 327 326 326 327 327 327 325 324 324 323 321 315 312 311 312 312 322 322 319 321
321 317 314 312 308 315 320 322 322 321 320 324 327 328 329 333 335 334 332 330 329 327 327 326 327 328 328 328 326 325 325 325 326 322 319 316 309 304 303 313 312 313 316
332 333 339 330 320 320 323 322 320 320 322 326 331 334 335 333 334 333 332 330 327 328 329 329 328 328 328 329 327 327 325 326 327 327 325 321 319 311 296 302 305 305 313
353 348 342 343 336 329 324 326 326 325 328 328 327 329 328 329 331 333 334 333 330 329 328 328 329 329 328 328 327 325 323 324 323 324 325 323 320 313 298 299 296 298 310
353 352 343 333 329 328 326 326 327 324 323 323 323 325 328 331 334 334 336 335 334 330 329 329 329 329 328 328 327 325 325 326 326 326 326 323 321 316 306 301 297 291 301
340 333 331 330 329 327 325 327 327 327 324 323 322 323 325 330 332 335 334 333 333 331 330 329 329 329 330 331 331 331 331 329 327 326 325 323 321 319 311 306 302 295 301
331 329 329 328 327 327 328 328 327 326 323 323 321 321 324 327 328 329 330 331 332 331 331 330 330 330 332 333 332 334 335 336 326 327 326 324 324 324 319 315 314 313 313
331 330 328 326 329 330 331 330 329 331 328 325 325 325 325 325 328 330 329 329 330 329 329 330 330 332 332 333 334 335 335 336 340 334 323 321 321 321 318 316 316 319 316
326 327 328 328 328 328 327 329 335 333 332 331 330 328 328 328 329 329 329 329 328 329 329 329 330 331 332 333 333 334 335 334 333 332 336 318 315 314 312 312 313 315 315
326 326 326 326 327 328 328 327 324 326 329 329 329 328 329 328 329 329 328 329 329 329 328 329 330 331 333 333 333 334 333 334 333 330 329 327 328 312 311 309 309 311 312
335 334 330 327 326 327 326 325 325 324 323 325 324 325 325 328 330 330 329 329 330 332 330 330 330 332 332 332 333 333 333 334 333 331 327 319 311 316 313 308 304 309 311
332 332 331 330 327 326 325 325 324 324 324 325 326 325 324 328 330 331 330 328 328 329 330 330 331 331 331 332 332 332 333 334 334 332 327 320 312 308 305 308 307 304 306
332 331 331 329 327 326 326 326 325 325 325 325 324 324 325 326 326 328 328 329 329 329 330 329 330 330 331 331 332 333 333 334 334 332 326 316 313 306 301 300 300 304 302
336 334 332 330 327 327 326 326 325 325 324 324 324 327 328 327 327 327 328 329 329 330 329 329 329 331 331 332 332 333 333 333 332 329 324 314 305 299 296 297 297 298 303
335 333 331 329 328 327 327 325 324 324 324 324 325 326 326 326 326 327 328 328 329 330 331 331 330 330 331 332 332 332 331 330 328 325 317 309 299 295 294 293 290 290 292
335 332 330 329 328 327 326 325 324 325 324 324 325 325 326 326 326 326 327 329 329 330 331 332 330 330 332 332 332 332 330 328 323 316 307 301 295 290 289 287 284 281 284
335 332 329 328 327 326 325 325 325 324 324 325 325 325 325 326 327 327 328 329 330 330 332 331 332 331 331 331 332 330 327 323 320 314 307 301 295 287 282 279 277 273 272
332 330 329 328 327 326 325 325 325 325 324 325 325 326 327 327 328 329 330 330 331 331 333 333 332 332 332 329 326 324 324 323 313 304 301 298 293 281 271 271 270 267 266
332 330 329 328 327 327 326 325 325 325 325 326 327 327 328 329 330 330 331 332 333 334 333 333 332 331 328 328 327 323 316 306 297 292 297 295 284 278 269 266 263 263 261